AFL1201 USPP-UUEE

Flight info

Callsign AFL1201
Flight time 1h 45m
Altitude 34000
Route N0450F340 GEBSI M60 BAPTA P874 BAPUN N869 REKPA N181 ROMTA
Aircraft A321/M-VGDW/C

Departure

Time 2026-04-23 23:06
Airport Perm International Airport (USPP)

Arrival

Time 2026-04-24 00:52
Airport Sheremetyevo International Airport (UUEE)
Time Latitude Longitude Altitude Speed Heading
2026-04-23 22:56 57.91910 56.02093 419 ft 0 kts 315°
2026-04-23 23:01 57.91910 56.02092 419 ft 0 kts 315°
2026-04-23 23:02 57.91924 56.02088 419 ft 4 kts 20°
2026-04-23 23:02 57.91933 56.02162 419 ft 8 kts 86°
2026-04-23 23:02 57.91938 56.02288 419 ft 11 kts 85°
2026-04-23 23:02 57.91984 56.02431 419 ft 15 kts 46°
2026-04-23 23:03 57.92065 56.02590 419 ft 19 kts 46°
2026-04-23 23:03 57.92164 56.02784 419 ft 22 kts 46°
2026-04-23 23:03 57.92273 56.02996 419 ft 20 kts 46°
2026-04-23 23:03 57.92369 56.03181 419 ft 20 kts 46°
2026-04-23 23:04 57.92471 56.03380 419 ft 22 kts 46°
2026-04-23 23:04 57.92579 56.03591 419 ft 23 kts 46°
2026-04-23 23:04 57.92595 56.03787 419 ft 17 kts 136°
2026-04-23 23:04 57.92506 56.03943 419 ft 18 kts 136°
2026-04-23 23:05 57.92416 56.04022 419 ft 12 kts 217°
2026-04-23 23:05 57.92400 56.03993 419 ft 2 kts 225°
2026-04-23 23:05 57.92249 56.03713 419 ft 68 kts 226°
2026-04-23 23:05 57.91761 56.02757 419 ft 132 kts 226°
2026-04-23 23:06 57.91024 56.01317 665 ft 158 kts 225°
2026-04-23 23:06 57.90280 55.99852 1450 ft 154 kts 225°
2026-04-23 23:06 57.89539 55.98360 2096 ft 158 kts 232°
2026-04-23 23:06 57.89234 55.96454 2563 ft 157 kts 270°
2026-04-23 23:07 57.89662 55.94575 2842 ft 159 kts 301°
2026-04-23 23:07 57.90315 55.92899 3209 ft 159 kts 302°
2026-04-23 23:07 57.90977 55.91216 3525 ft 164 kts 303°
2026-04-23 23:07 57.91695 55.89367 3641 ft 187 kts 303°
2026-04-23 23:08 57.92500 55.87246 3729 ft 215 kts 303°
2026-04-23 23:08 57.93437 55.84740 3790 ft 251 kts 303°
2026-04-23 23:08 57.94458 55.82009 4544 ft 252 kts 303°
2026-04-23 23:08 57.95489 55.79310 5411 ft 255 kts 304°
2026-04-23 23:09 57.96542 55.76605 6248 ft 257 kts 305°
2026-04-23 23:09 57.97604 55.73906 7001 ft 261 kts 305°
2026-04-23 23:09 57.98702 55.71135 7763 ft 264 kts 305°
2026-04-23 23:09 57.99813 55.68341 8480 ft 268 kts 305°
2026-04-23 23:10 58.00944 55.65501 9179 ft 272 kts 306°
2026-04-23 23:10 58.02086 55.62641 9856 ft 275 kts 305°
2026-04-23 23:10 58.03280 55.59644 10047 ft 298 kts 305°
2026-04-23 23:10 58.04571 55.56371 10129 ft 321 kts 304°
2026-04-23 23:11 58.05950 55.52860 10210 ft 343 kts 305°
2026-04-23 23:11 58.07390 55.49202 10533 ft 354 kts 305°
2026-04-23 23:11 58.08865 55.45476 11192 ft 356 kts 305°
2026-04-23 23:11 58.10365 55.41706 11777 ft 359 kts 305°
2026-04-23 23:12 58.11875 55.37922 12356 ft 362 kts 305°
2026-04-23 23:12 58.13398 55.34105 12926 ft 365 kts 305°
2026-04-23 23:12 58.14938 55.30247 13553 ft 366 kts 305°
2026-04-23 23:12 58.16482 55.26380 14106 ft 370 kts 305°
2026-04-23 23:13 58.18042 55.22476 14666 ft 373 kts 305°
2026-04-23 23:13 58.19615 55.18536 15203 ft 376 kts 305°
2026-04-23 23:13 58.21202 55.14559 15731 ft 379 kts 305°
2026-04-23 23:13 58.22774 55.10617 16253 ft 381 kts 305°
2026-04-23 23:14 58.24381 55.06584 16753 ft 384 kts 306°
2026-04-23 23:14 58.26002 55.02510 17248 ft 387 kts 306°
2026-04-23 23:14 58.27631 54.98414 17736 ft 389 kts 306°
2026-04-23 23:14 58.29271 54.94287 18206 ft 391 kts 305°
2026-04-23 23:15 58.30802 54.89982 18670 ft 393 kts 300°
2026-04-23 23:15 58.32078 54.85455 19111 ft 394 kts 294°
2026-04-23 23:15 58.33115 54.80591 19511 ft 397 kts 288°
2026-04-23 23:15 58.33972 54.75594 19950 ft 398 kts 287°
2026-04-23 23:16 58.34821 54.70552 20309 ft 402 kts 287°
2026-04-23 23:16 58.35385 54.67185 20577 ft 403 kts 287°
2026-04-23 23:16 58.36233 54.62088 20977 ft 405 kts 287°
2026-04-23 23:16 58.37083 54.56953 21345 ft 407 kts 287°
2026-04-23 23:17 58.37932 54.51792 21708 ft 409 kts 287°
2026-04-23 23:17 58.38785 54.46592 22051 ft 412 kts 287°
2026-04-23 23:17 58.39639 54.41359 22386 ft 414 kts 287°
2026-04-23 23:17 58.40494 54.36101 22708 ft 416 kts 287°
2026-04-23 23:18 58.41351 54.30818 23014 ft 418 kts 287°
2026-04-23 23:18 58.42211 54.25499 23315 ft 420 kts 287°
2026-04-23 23:18 58.43061 54.20224 23600 ft 421 kts 287°
2026-04-23 23:18 58.43924 54.14858 23877 ft 423 kts 287°
2026-04-23 23:19 58.44787 54.09477 24147 ft 425 kts 287°
2026-04-23 23:19 58.45654 54.04053 24414 ft 427 kts 287°
2026-04-23 23:19 58.46521 53.98612 24675 ft 428 kts 287°
2026-04-23 23:19 58.47378 53.93222 24970 ft 429 kts 287°
2026-04-23 23:20 58.48225 53.87742 25198 ft 431 kts 286°
2026-04-23 23:20 58.49070 53.82210 25451 ft 433 kts 286°
2026-04-23 23:20 58.49918 53.76665 25685 ft 434 kts 286°
2026-04-23 23:20 58.50771 53.71107 25918 ft 436 kts 286°
2026-04-23 23:21 58.51626 53.65545 26190 ft 436 kts 286°
2026-04-23 23:21 58.52484 53.59962 26386 ft 438 kts 286°
2026-04-23 23:21 58.53335 53.54431 26604 ft 439 kts 286°
2026-04-23 23:21 58.54199 53.48808 26809 ft 441 kts 286°
2026-04-23 23:22 58.55064 53.43173 27011 ft 442 kts 286°
2026-04-23 23:22 58.55933 53.37507 27247 ft 442 kts 286°
2026-04-23 23:22 58.56800 53.31846 27433 ft 444 kts 286°
2026-04-23 23:22 58.57670 53.26157 27613 ft 445 kts 286°
2026-04-23 23:23 58.58542 53.20443 27797 ft 446 kts 286°
2026-04-23 23:23 58.59413 53.14722 27968 ft 447 kts 286°
2026-04-23 23:23 58.60273 53.09066 28204 ft 447 kts 286°
2026-04-23 23:23 58.61138 53.03357 28484 ft 445 kts 286°
2026-04-23 23:24 58.61999 52.97646 28699 ft 445 kts 285°
2026-04-23 23:24 58.62859 52.91928 28924 ft 444 kts 285°
2026-04-23 23:24 58.63707 52.86221 29162 ft 443 kts 284°
2026-04-23 23:24 58.64347 52.80429 29411 ft 442 kts 279°
2026-04-23 23:25 58.64704 52.74579 29707 ft 439 kts 274°
2026-04-23 23:25 58.64788 52.68715 29910 ft 439 kts 269°
2026-04-23 23:25 58.64663 52.62923 30119 ft 439 kts 267°
2026-04-23 23:25 58.64513 52.57070 30320 ft 439 kts 267°
2026-04-23 23:26 58.64361 52.51209 30546 ft 438 kts 267°
2026-04-23 23:26 58.64208 52.45368 30772 ft 438 kts 267°
2026-04-23 23:26 58.64053 52.39526 30956 ft 438 kts 267°
2026-04-23 23:26 58.63895 52.33670 31166 ft 438 kts 266°
2026-04-23 23:27 58.63736 52.27823 31369 ft 438 kts 266°
2026-04-23 23:27 58.63575 52.21979 31608 ft 437 kts 266°
2026-04-23 23:27 58.63414 52.16228 31817 ft 437 kts 266°
2026-04-23 23:27 58.63246 52.10390 31998 ft 437 kts 266°
2026-04-23 23:28 58.63061 52.04570 32191 ft 437 kts 266°
2026-04-23 23:28 58.62874 51.98741 32395 ft 437 kts 266°
2026-04-23 23:28 58.62689 51.92936 32653 ft 435 kts 265°
2026-04-23 23:28 58.62503 51.87130 32809 ft 436 kts 265°
2026-04-23 23:29 58.62318 51.81379 32981 ft 436 kts 265°
2026-04-23 23:29 58.62131 51.75566 33162 ft 436 kts 265°
2026-04-23 23:29 58.61943 51.69755 33397 ft 435 kts 265°
2026-04-23 23:30 58.61562 51.58093 33521 ft 437 kts 265°
2026-04-23 23:30 58.61177 51.46522 33530 ft 436 kts 265°
2026-04-23 23:31 58.60761 51.34893 33530 ft 437 kts 264°
2026-04-23 23:31 58.60342 51.23266 33530 ft 437 kts 264°
2026-04-23 23:32 58.59925 51.11616 33530 ft 437 kts 264°
2026-04-23 23:32 58.59509 51.00047 33531 ft 437 kts 264°
2026-04-23 23:33 58.59088 50.88415 33530 ft 436 kts 264°
2026-04-23 23:33 58.58660 50.76791 33529 ft 437 kts 264°
2026-04-23 23:34 58.58225 50.65160 33528 ft 437 kts 264°
2026-04-23 23:34 58.57784 50.53593 33528 ft 437 kts 264°
2026-04-23 23:35 58.57676 50.41978 33528 ft 438 kts 269°
2026-04-23 23:35 58.57759 50.30288 33528 ft 438 kts 269°
2026-04-23 23:36 58.57845 50.18585 33527 ft 438 kts 269°
2026-04-23 23:36 58.57921 50.06910 33527 ft 438 kts 269°
2026-04-23 23:37 58.58001 49.95215 33527 ft 438 kts 269°
2026-04-23 23:37 58.58079 49.83593 33526 ft 438 kts 269°
2026-04-23 23:38 58.58155 49.71882 33526 ft 438 kts 269°
2026-04-23 23:38 58.58226 49.60259 33526 ft 438 kts 268°
2026-04-23 23:39 58.58289 49.48563 33526 ft 438 kts 268°
2026-04-23 23:39 58.58337 49.36868 33525 ft 438 kts 268°
2026-04-23 23:40 58.58319 49.25168 33525 ft 438 kts 268°
2026-04-23 23:40 58.58305 49.13544 33507 ft 439 kts 268°
2026-04-23 23:41 58.58295 49.01836 33488 ft 439 kts 268°
2026-04-23 23:41 58.58284 48.90128 33493 ft 439 kts 268°
2026-04-23 23:42 58.58270 48.78390 33494 ft 439 kts 267°
2026-04-23 23:42 58.58250 48.66716 33494 ft 440 kts 267°
2026-04-23 23:43 58.58169 48.54976 33495 ft 440 kts 266°
2026-04-23 23:43 58.58084 48.43328 33494 ft 439 kts 266°
2026-04-23 23:44 58.58002 48.31580 33495 ft 440 kts 267°
2026-04-23 23:44 58.57888 48.19862 33495 ft 439 kts 266°
2026-04-23 23:45 58.57724 48.08221 33495 ft 439 kts 266°
2026-04-23 23:45 58.57560 47.96526 33495 ft 439 kts 266°
2026-04-23 23:46 58.57396 47.84814 33495 ft 440 kts 266°
2026-04-23 23:46 58.57228 47.73085 33495 ft 439 kts 265°
2026-04-23 23:47 58.57055 47.61447 33495 ft 439 kts 265°
2026-04-23 23:47 58.56873 47.49728 33495 ft 440 kts 265°
2026-04-23 23:48 58.56704 47.38002 33495 ft 440 kts 266°
2026-04-23 23:48 58.56554 47.26265 33464 ft 440 kts 266°
2026-04-23 23:49 58.56337 47.08776 33450 ft 440 kts 266°
2026-04-23 23:49 58.56191 46.97047 33449 ft 440 kts 266°
2026-04-23 23:50 58.56040 46.85313 33449 ft 440 kts 265°
2026-04-23 23:50 58.55884 46.73573 33449 ft 440 kts 265°
2026-04-23 23:51 58.55721 46.61912 33448 ft 440 kts 265°
2026-04-23 23:51 58.55549 46.50190 33448 ft 439 kts 265°
2026-04-23 23:52 58.55368 46.38485 33447 ft 440 kts 265°
2026-04-23 23:52 58.55179 46.26836 33447 ft 440 kts 265°
2026-04-23 23:53 58.54978 46.15113 33446 ft 440 kts 265°
2026-04-23 23:53 58.54769 46.03452 33446 ft 439 kts 265°
2026-04-23 23:54 58.54549 45.91755 33445 ft 440 kts 265°
2026-04-23 23:54 58.54317 45.80025 33445 ft 440 kts 265°
2026-04-23 23:55 58.53352 45.68541 33446 ft 435 kts 252°
2026-04-23 23:55 58.51757 45.57416 33443 ft 436 kts 252°
2026-04-23 23:56 58.50214 45.46166 33443 ft 436 kts 253°
2026-04-23 23:56 58.48678 45.34915 33442 ft 437 kts 253°
2026-04-23 23:57 58.47146 45.23730 33442 ft 437 kts 253°
2026-04-23 23:57 58.45594 45.12470 33441 ft 438 kts 253°
2026-04-23 23:58 58.44034 45.01227 33440 ft 438 kts 253°
2026-04-23 23:58 58.42458 44.89956 33439 ft 439 kts 253°
2026-04-23 23:59 58.40870 44.78687 33439 ft 439 kts 253°
2026-04-23 23:59 58.39283 44.67512 33438 ft 439 kts 252°
2026-04-24 00:00 58.37676 44.56272 33438 ft 439 kts 252°
2026-04-24 00:00 58.36054 44.45014 33437 ft 439 kts 252°
2026-04-24 00:01 58.34424 44.33785 33436 ft 439 kts 252°
2026-04-24 00:01 58.32793 44.22627 33434 ft 440 kts 252°
2026-04-24 00:02 58.31142 44.11404 33434 ft 440 kts 252°
2026-04-24 00:02 58.29764 44.02100 33434 ft 440 kts 252°
2026-04-24 00:03 58.28095 43.90906 33434 ft 441 kts 252°
2026-04-24 00:03 58.26416 43.79711 33432 ft 440 kts 252°
2026-04-24 00:04 58.24728 43.68542 33422 ft 439 kts 252°
2026-04-24 00:04 58.23041 43.57453 33420 ft 441 kts 252°
2026-04-24 00:05 58.21328 43.46272 33416 ft 440 kts 252°
2026-04-24 00:05 58.19607 43.35109 33418 ft 441 kts 252°
2026-04-24 00:06 58.17872 43.23929 33419 ft 443 kts 252°
2026-04-24 00:06 58.16120 43.12715 33418 ft 444 kts 252°
2026-04-24 00:07 58.14366 43.01564 33418 ft 445 kts 252°
2026-04-24 00:07 58.12586 42.90321 33419 ft 446 kts 252°
2026-04-24 00:08 58.10795 42.79081 33418 ft 446 kts 252°
2026-04-24 00:08 58.08989 42.67823 33419 ft 447 kts 252°
2026-04-24 00:09 58.07185 42.56646 33418 ft 448 kts 252°
2026-04-24 00:09 58.05357 42.45401 33418 ft 447 kts 252°
2026-04-24 00:10 58.03514 42.34134 33420 ft 449 kts 252°
2026-04-24 00:10 58.01663 42.22890 33418 ft 448 kts 251°
2026-04-24 00:11 57.99814 42.11729 33419 ft 448 kts 251°
2026-04-24 00:11 57.97946 42.00517 33421 ft 450 kts 251°
2026-04-24 00:12 57.96057 41.89272 33421 ft 449 kts 251°
2026-04-24 00:12 57.94173 41.78113 33421 ft 449 kts 251°
2026-04-24 00:13 57.92266 41.66896 33422 ft 449 kts 251°
2026-04-24 00:13 57.90345 41.55667 33422 ft 450 kts 251°
2026-04-24 00:14 57.88406 41.44473 33423 ft 451 kts 251°
2026-04-24 00:14 57.86480 41.33327 33424 ft 451 kts 251°
2026-04-24 00:15 57.84545 41.22109 33424 ft 452 kts 251°
2026-04-24 00:15 57.82631 41.11013 33421 ft 433 kts 251°
2026-04-24 00:16 57.80800 41.00497 33425 ft 427 kts 251°
2026-04-24 00:16 57.78943 40.89854 33426 ft 430 kts 251°
2026-04-24 00:17 57.77077 40.79170 33427 ft 431 kts 251°
2026-04-24 00:17 57.75209 40.68504 33431 ft 431 kts 251°
2026-04-24 00:18 57.73338 40.57866 33448 ft 432 kts 251°
2026-04-24 00:18 57.71448 40.47161 33459 ft 434 kts 252°
2026-04-24 00:19 57.69545 40.36442 33461 ft 434 kts 252°
2026-04-24 00:19 57.67641 40.25770 33462 ft 434 kts 252°
2026-04-24 00:20 57.65723 40.15079 33464 ft 434 kts 252°
2026-04-24 00:20 57.63794 40.04390 33465 ft 434 kts 252°
2026-04-24 00:21 57.61803 39.93816 33467 ft 435 kts 251°
2026-04-24 00:21 57.59757 39.83139 33468 ft 436 kts 251°
2026-04-24 00:22 57.57744 39.72538 33469 ft 436 kts 251°
2026-04-24 00:22 57.55731 39.61879 33471 ft 436 kts 251°
2026-04-24 00:23 57.53718 39.51208 33471 ft 436 kts 251°
2026-04-24 00:23 57.51717 39.40602 33473 ft 436 kts 251°
2026-04-24 00:24 57.49703 39.29942 33474 ft 437 kts 251°
2026-04-24 00:24 57.47651 39.19280 33476 ft 437 kts 251°
2026-04-24 00:25 57.45591 39.08701 33477 ft 438 kts 251°
2026-04-24 00:25 57.43521 38.98040 33478 ft 438 kts 251°
2026-04-24 00:26 57.41455 38.87390 33479 ft 438 kts 251°
2026-04-24 00:26 57.39403 38.76832 33480 ft 438 kts 251°
2026-04-24 00:27 57.37329 38.66183 33481 ft 439 kts 251°
2026-04-24 00:27 57.35252 38.55551 33482 ft 439 kts 251°
2026-04-24 00:28 57.33167 38.44918 33482 ft 439 kts 251°
2026-04-24 00:28 57.31083 38.34347 33483 ft 440 kts 251°
2026-04-24 00:29 57.28173 38.24322 33488 ft 442 kts 240°
2026-04-24 00:29 57.25025 38.14634 33488 ft 442 kts 240°
2026-04-24 00:30 57.21856 38.04887 33488 ft 442 kts 240°
2026-04-24 00:30 57.18682 37.95152 33488 ft 445 kts 241°
2026-04-24 00:31 57.15500 37.85406 33486 ft 446 kts 241°
2026-04-24 00:31 57.12228 37.75670 32934 ft 449 kts 234°
2026-04-24 00:32 57.09977 37.71532 31805 ft 464 kts 218°
2026-04-24 00:32 57.07147 37.68564 30793 ft 473 kts 205°
2026-04-24 00:32 57.04126 37.66242 30081 ft 470 kts 203°
2026-04-24 00:32 57.01140 37.64014 29397 ft 467 kts 202°
2026-04-24 00:33 56.98115 37.61766 28436 ft 469 kts 202°
2026-04-24 00:33 56.95118 37.59544 27965 ft 459 kts 202°
2026-04-24 00:33 56.92154 37.57349 27351 ft 453 kts 202°
2026-04-24 00:33 56.89254 37.55203 26673 ft 448 kts 202°
2026-04-24 00:34 56.86388 37.53086 26151 ft 439 kts 202°
2026-04-24 00:34 56.83586 37.51019 25578 ft 434 kts 202°
2026-04-24 00:34 56.80796 37.48965 24896 ft 430 kts 202°
2026-04-24 00:34 56.78051 37.46947 24307 ft 423 kts 202°
2026-04-24 00:35 56.75328 37.44947 23708 ft 418 kts 201°
2026-04-24 00:35 56.72643 37.42979 23074 ft 414 kts 201°
2026-04-24 00:35 56.69981 37.41034 22457 ft 410 kts 201°
2026-04-24 00:35 56.67351 37.39115 21922 ft 404 kts 202°
2026-04-24 00:36 56.64757 37.37180 21321 ft 401 kts 202°
2026-04-24 00:36 56.62228 37.35277 20652 ft 399 kts 202°
2026-04-24 00:36 56.59676 37.33354 20192 ft 392 kts 202°
2026-04-24 00:36 56.57154 37.31453 19591 ft 390 kts 202°
2026-04-24 00:37 56.54650 37.29566 19027 ft 387 kts 202°
2026-04-24 00:37 56.52156 37.27774 18498 ft 384 kts 201°
2026-04-24 00:37 56.49673 37.26055 18057 ft 378 kts 201°
2026-04-24 00:37 56.47286 37.24407 17913 ft 365 kts 201°
2026-04-24 00:38 56.44928 37.22953 17801 ft 349 kts 192°
2026-04-24 00:38 56.42571 37.22738 17525 ft 334 kts 173°
2026-04-24 00:38 56.40336 37.23464 17330 ft 319 kts 169°
2026-04-24 00:38 56.38181 37.24220 16778 ft 317 kts 169°
2026-04-24 00:39 56.36027 37.25014 16342 ft 311 kts 168°
2026-04-24 00:39 56.33893 37.25823 15764 ft 312 kts 168°
2026-04-24 00:39 56.31807 37.26628 15215 ft 311 kts 168°
2026-04-24 00:39 56.29692 37.27452 14705 ft 310 kts 168°
2026-04-24 00:40 56.27577 37.28280 14120 ft 311 kts 168°
2026-04-24 00:40 56.25470 37.29116 13568 ft 311 kts 166°
2026-04-24 00:40 56.23393 37.30107 13105 ft 306 kts 164°
2026-04-24 00:40 56.21326 37.31130 12620 ft 304 kts 163°
2026-04-24 00:41 56.19320 37.32116 12299 ft 297 kts 165°
2026-04-24 00:41 56.17269 37.32304 11760 ft 297 kts 188°
2026-04-24 00:41 56.15334 37.31059 11174 ft 297 kts 211°
2026-04-24 00:41 56.13841 37.28624 10616 ft 293 kts 235°
2026-04-24 00:42 56.12988 37.25370 10033 ft 287 kts 260°
2026-04-24 00:42 56.12884 37.21865 9505 ft 280 kts 277°
2026-04-24 00:42 56.12909 37.18385 8988 ft 281 kts 272°
2026-04-24 00:42 56.12752 37.14900 8554 ft 279 kts 268°
2026-04-24 00:43 56.12479 37.11450 7988 ft 279 kts 265°
2026-04-24 00:43 56.12127 37.08042 7444 ft 277 kts 263°
2026-04-24 00:43 56.11387 37.04871 6874 ft 284 kts 239°
2026-04-24 00:43 56.09967 37.02414 6458 ft 283 kts 217°
2026-04-24 00:44 56.08307 37.00503 6091 ft 282 kts 214°
2026-04-24 00:44 56.06679 36.98654 5844 ft 270 kts 214°
2026-04-24 00:44 56.05123 36.96873 5628 ft 260 kts 214°
2026-04-24 00:44 56.03593 36.95110 5201 ft 260 kts 215°
2026-04-24 00:45 56.02094 36.93378 4852 ft 257 kts 215°
2026-04-24 00:45 56.00593 36.91667 4441 ft 255 kts 211°
2026-04-24 00:45 55.98892 36.90807 4022 ft 255 kts 183°
2026-04-24 00:45 55.97200 36.91406 3918 ft 246 kts 154°
2026-04-24 00:46 55.95876 36.93171 3847 ft 234 kts 131°
2026-04-24 00:46 55.94692 36.95172 3716 ft 234 kts 133°
2026-04-24 00:46 55.93461 36.97045 3622 ft 228 kts 136°
2026-04-24 00:46 55.92307 36.98930 3453 ft 220 kts 122°
2026-04-24 00:47 55.91781 37.01340 3332 ft 207 kts 91°
2026-04-24 00:47 55.91886 37.03857 3214 ft 201 kts 74°
2026-04-24 00:47 55.92176 37.06279 3084 ft 200 kts 70°
2026-04-24 00:47 55.92514 37.08684 2970 ft 200 kts 69°
2026-04-24 00:48 55.92863 37.11070 2864 ft 196 kts 68°
2026-04-24 00:48 55.93191 37.13303 2752 ft 179 kts 68°
2026-04-24 00:48 55.93508 37.15422 2654 ft 174 kts 68°
2026-04-24 00:48 55.93822 37.17507 2569 ft 174 kts 68°
2026-04-24 00:49 55.94128 37.19558 2485 ft 165 kts 68°
2026-04-24 00:49 55.94406 37.21438 2296 ft 150 kts 67°
2026-04-24 00:49 55.94677 37.23239 2135 ft 149 kts 67°
2026-04-24 00:49 55.94956 37.25046 1968 ft 157 kts 70°
2026-04-24 00:50 55.95233 37.26925 1800 ft 152 kts 71°
2026-04-24 00:50 55.95507 37.28771 1628 ft 153 kts 71°
2026-04-24 00:50 55.95782 37.30622 1448 ft 152 kts 71°
2026-04-24 00:50 55.96050 37.32423 1275 ft 148 kts 70°
2026-04-24 00:51 55.96323 37.34242 1101 ft 156 kts 71°
2026-04-24 00:51 55.96598 37.36087 930 ft 154 kts 71°
2026-04-24 00:51 55.96870 37.37915 738 ft 151 kts 71°
2026-04-24 00:51 55.97140 37.39721 645 ft 138 kts 71°
2026-04-24 00:52 55.97305 37.40809 645 ft 47 kts 75°
2026-04-24 00:52 55.97350 37.41111 645 ft 28 kts 76°
2026-04-24 00:52 55.97463 37.41207 645 ft 22 kts 345°
2026-04-24 00:52 55.97558 37.41327 645 ft 21 kts 75°
2026-04-24 00:53 55.97612 37.41585 645 ft 21 kts 30°
2026-04-24 00:53 55.97751 37.41560 645 ft 18 kts 25°
2026-04-24 00:53 55.97803 37.41653 645 ft 0 kts 50°